Year,Month,Day,Hour,Minute,Value (Times are PST for temperature in C)
2020,08,18,00,00,19.80
2020,08,18,00,01,19.80
2020,08,18,00,02,19.80
2020,08,18,00,03,19.80
2020,08,18,00,04,19.80
2020,08,18,00,05,19.80
2020,08,18,00,06,19.80
2020,08,18,00,07,19.80
2020,08,18,00,08,19.80
2020,08,18,00,09,19.80
2020,08,18,00,10,19.80
2020,08,18,00,11,19.70
2020,08,18,00,12,19.70
2020,08,18,00,13,19.70
2020,08,18,00,14,19.70
2020,08,18,00,15,19.70
2020,08,18,00,16,19.70
2020,08,18,00,17,19.70
2020,08,18,00,18,19.70
2020,08,18,00,19,19.70
2020,08,18,00,20,19.70
2020,08,18,00,21,19.70
2020,08,18,00,22,19.70
2020,08,18,00,23,19.70
2020,08,18,00,24,19.60
2020,08,18,00,25,19.60
2020,08,18,00,26,19.60
2020,08,18,00,27,19.60
2020,08,18,00,28,19.60
2020,08,18,00,29,19.60
2020,08,18,00,30,19.60
2020,08,18,00,31,19.60
2020,08,18,00,32,19.60
2020,08,18,00,33,19.60
2020,08,18,00,34,19.60
2020,08,18,00,35,19.60
2020,08,18,00,36,19.60
2020,08,18,00,37,19.60
2020,08,18,00,38,19.60
2020,08,18,00,39,19.60
2020,08,18,00,40,19.60
2020,08,18,00,41,19.60
2020,08,18,00,42,19.60
2020,08,18,00,43,19.60
2020,08,18,00,44,19.60
2020,08,18,00,45,19.60
2020,08,18,00,46,19.60
2020,08,18,00,47,19.60
2020,08,18,00,48,19.60
2020,08,18,00,49,19.60
2020,08,18,00,50,19.60
2020,08,18,00,51,19.60
2020,08,18,00,52,19.60
2020,08,18,00,53,19.60
2020,08,18,00,54,19.60
2020,08,18,00,55,19.60
2020,08,18,00,56,19.60
2020,08,18,00,57,19.60
2020,08,18,00,58,19.60
2020,08,18,00,59,19.60
2020,08,18,01,00,19.60
2020,08,18,01,01,19.60
2020,08,18,01,02,19.60
2020,08,18,01,03,19.60
2020,08,18,01,04,19.60
2020,08,18,01,05,19.60
2020,08,18,01,06,19.60
2020,08,18,01,07,19.60
2020,08,18,01,08,19.60
2020,08,18,01,09,19.60
2020,08,18,01,10,19.60
2020,08,18,01,11,19.60
2020,08,18,01,12,19.60
2020,08,18,01,13,19.60
2020,08,18,01,14,19.60
2020,08,18,01,15,19.60
2020,08,18,01,16,19.60
2020,08,18,01,17,19.60
2020,08,18,01,18,19.50
2020,08,18,01,19,19.50
2020,08,18,01,20,19.50
2020,08,18,01,21,19.50
2020,08,18,01,22,19.50
2020,08,18,01,23,19.40
2020,08,18,01,24,19.40
2020,08,18,01,25,19.40
2020,08,18,01,26,19.40
2020,08,18,01,27,19.40
2020,08,18,01,28,19.40
2020,08,18,01,29,19.40
2020,08,18,01,30,19.40
2020,08,18,01,31,19.30
2020,08,18,01,32,19.30
2020,08,18,01,33,19.30
2020,08,18,01,34,19.30
2020,08,18,01,35,19.30
2020,08,18,01,36,19.30
2020,08,18,01,37,19.30
2020,08,18,01,38,19.30
2020,08,18,01,39,19.30
2020,08,18,01,40,19.20
2020,08,18,01,41,19.20
2020,08,18,01,42,19.20
2020,08,18,01,43,19.20
2020,08,18,01,44,19.20
2020,08,18,01,45,19.10
2020,08,18,01,46,19.10
2020,08,18,01,47,19.10
2020,08,18,01,48,19.10
2020,08,18,01,49,19.10
2020,08,18,01,50,19.10
2020,08,18,01,51,19.10
2020,08,18,01,52,19.00
2020,08,18,01,53,19.00
2020,08,18,01,54,19.00
2020,08,18,01,55,19.00
2020,08,18,01,56,18.90
2020,08,18,01,57,18.90
2020,08,18,01,58,18.90
2020,08,18,01,59,18.90
2020,08,18,02,00,18.90
2020,08,18,02,01,18.80
2020,08,18,02,02,18.80
2020,08,18,02,03,18.80
2020,08,18,02,04,18.80
2020,08,18,02,05,18.80
2020,08,18,02,06,18.80
2020,08,18,02,07,18.80
2020,08,18,02,08,18.70
2020,08,18,02,09,18.70
2020,08,18,02,10,18.70
2020,08,18,02,11,18.70
2020,08,18,02,12,18.70
2020,08,18,02,13,18.70
2020,08,18,02,14,18.70
2020,08,18,02,15,18.70
2020,08,18,02,16,18.60
2020,08,18,02,17,18.60
2020,08,18,02,18,18.60
2020,08,18,02,19,18.60
2020,08,18,02,20,18.60
2020,08,18,02,21,18.60
2020,08,18,02,22,18.60
2020,08,18,02,23,18.60
2020,08,18,02,24,18.50
2020,08,18,02,25,18.50
2020,08,18,02,26,18.50
2020,08,18,02,27,18.50
2020,08,18,02,28,18.50
2020,08,18,02,29,18.50
2020,08,18,02,30,18.50
2020,08,18,02,31,18.40
2020,08,18,02,32,18.40
2020,08,18,02,33,18.40
2020,08,18,02,34,18.40
2020,08,18,02,35,18.50
2020,08,18,02,36,18.50
2020,08,18,02,37,18.50
2020,08,18,02,38,18.60
2020,08,18,02,39,18.60
2020,08,18,02,40,18.60
2020,08,18,02,41,18.60
2020,08,18,02,42,18.60
2020,08,18,02,43,18.60
2020,08,18,02,44,18.60
2020,08,18,02,45,18.60
2020,08,18,02,46,18.60
2020,08,18,02,47,18.60
2020,08,18,02,48,18.60
2020,08,18,02,49,18.60
2020,08,18,02,50,18.60
2020,08,18,02,51,18.60
2020,08,18,02,52,18.60
2020,08,18,02,53,18.60
2020,08,18,02,54,18.60
2020,08,18,02,55,18.60
2020,08,18,02,56,18.60
2020,08,18,02,57,18.60
2020,08,18,02,58,18.60
2020,08,18,02,59,18.60
2020,08,18,03,00,18.70
2020,08,18,03,01,18.60
2020,08,18,03,02,18.70
2020,08,18,03,03,18.70
2020,08,18,03,04,18.70
2020,08,18,03,05,18.70
2020,08,18,03,06,18.70
2020,08,18,03,07,18.70
2020,08,18,03,08,18.70
2020,08,18,03,09,18.70
2020,08,18,03,10,18.70
2020,08,18,03,11,18.70
2020,08,18,03,12,18.70
2020,08,18,03,13,18.70
2020,08,18,03,14,18.70
2020,08,18,03,15,18.70
2020,08,18,03,16,18.80
2020,08,18,03,17,18.80
2020,08,18,03,18,18.80
2020,08,18,03,19,18.80
2020,08,18,03,20,18.80
2020,08,18,03,21,18.80
2020,08,18,03,22,18.80
2020,08,18,03,23,18.80
2020,08,18,03,24,18.80
2020,08,18,03,25,18.80
2020,08,18,03,26,18.80
2020,08,18,03,27,18.80
2020,08,18,03,28,18.80
2020,08,18,03,29,18.80
2020,08,18,03,30,18.80
2020,08,18,03,31,18.90
2020,08,18,03,32,18.80
2020,08,18,03,33,18.90
2020,08,18,03,34,18.90
2020,08,18,03,35,18.80
2020,08,18,03,36,18.80
2020,08,18,03,37,18.80
2020,08,18,03,38,18.80
2020,08,18,03,39,18.80
2020,08,18,03,40,18.80
2020,08,18,03,41,18.80
2020,08,18,03,42,18.80
2020,08,18,03,43,18.80
2020,08,18,03,44,18.80
2020,08,18,03,45,18.80
2020,08,18,03,46,18.80
2020,08,18,03,47,18.80
2020,08,18,03,48,18.80
2020,08,18,03,49,18.80
2020,08,18,03,50,18.80
2020,08,18,03,51,18.80
2020,08,18,03,52,18.80
2020,08,18,03,53,18.80
2020,08,18,03,54,18.80
2020,08,18,03,55,18.80
2020,08,18,03,56,18.80
2020,08,18,03,57,18.80
2020,08,18,03,58,18.80
2020,08,18,03,59,18.80
2020,08,18,04,00,18.80
2020,08,18,04,01,18.80
2020,08,18,04,02,18.80
2020,08,18,04,03,18.80
2020,08,18,04,04,18.80
2020,08,18,04,05,18.70
2020,08,18,04,06,18.70
2020,08,18,04,07,18.70
2020,08,18,04,08,18.70
2020,08,18,04,09,18.70
2020,08,18,04,10,18.70
2020,08,18,04,11,18.70
2020,08,18,04,12,18.70
2020,08,18,04,13,18.70
2020,08,18,04,14,18.70
2020,08,18,04,15,18.70
2020,08,18,04,16,18.70
2020,08,18,04,17,18.70
2020,08,18,04,18,18.70
2020,08,18,04,19,18.70
2020,08,18,04,20,18.70
2020,08,18,04,21,18.70
2020,08,18,04,22,18.60
2020,08,18,04,23,18.60
2020,08,18,04,24,18.60
2020,08,18,04,25,18.60
2020,08,18,04,26,18.60
2020,08,18,04,27,18.60
2020,08,18,04,28,18.60
2020,08,18,04,29,18.60
2020,08,18,04,30,18.60
2020,08,18,04,31,18.60
2020,08,18,04,32,18.60
2020,08,18,04,33,18.60
2020,08,18,04,34,18.60
2020,08,18,04,35,18.60
2020,08,18,04,36,18.60
2020,08,18,04,37,18.60
2020,08,18,04,38,18.60
2020,08,18,04,39,18.60
2020,08,18,04,40,18.60
2020,08,18,04,41,18.50
2020,08,18,04,42,18.50
2020,08,18,04,43,18.50
2020,08,18,04,44,18.50
2020,08,18,04,45,18.50
2020,08,18,04,46,18.50
2020,08,18,04,47,18.50
2020,08,18,04,48,18.50
2020,08,18,04,49,18.40
2020,08,18,04,50,18.50
2020,08,18,04,51,18.50
2020,08,18,04,52,18.50
2020,08,18,04,53,18.50
2020,08,18,04,54,18.50
2020,08,18,04,55,18.50
2020,08,18,04,56,18.50
2020,08,18,04,57,18.50
2020,08,18,04,58,18.50
2020,08,18,04,59,18.40
2020,08,18,05,00,18.40
2020,08,18,05,01,18.40
2020,08,18,05,02,18.40
2020,08,18,05,03,18.40
2020,08,18,05,04,18.40
2020,08,18,05,05,18.40
2020,08,18,05,06,18.40
2020,08,18,05,07,18.30
2020,08,18,05,08,18.30
2020,08,18,05,09,18.30
2020,08,18,05,10,18.30
2020,08,18,05,11,18.30
2020,08,18,05,12,18.30
2020,08,18,05,13,18.30
2020,08,18,05,14,18.20
2020,08,18,05,15,18.20
2020,08,18,05,16,18.20
2020,08,18,05,17,18.20
2020,08,18,05,18,18.20
2020,08,18,05,19,18.10
2020,08,18,05,20,18.10
2020,08,18,05,21,18.10
2020,08,18,05,22,18.10
2020,08,18,05,23,18.10
2020,08,18,05,24,18.10
2020,08,18,05,25,18.00
2020,08,18,05,26,18.00
2020,08,18,05,27,18.00
2020,08,18,05,28,17.90
2020,08,18,05,29,17.90
2020,08,18,05,30,17.90
2020,08,18,05,31,17.90
2020,08,18,05,32,17.90
2020,08,18,05,33,17.90
2020,08,18,05,34,17.90
2020,08,18,05,35,17.80
2020,08,18,05,36,17.80
2020,08,18,05,37,17.80
2020,08,18,05,38,17.80
2020,08,18,05,39,17.80
2020,08,18,05,40,17.80
2020,08,18,05,41,17.80
2020,08,18,05,42,17.80
2020,08,18,05,43,17.80
2020,08,18,05,44,17.70
2020,08,18,05,45,17.70
2020,08,18,05,46,17.70
2020,08,18,05,47,17.70
2020,08,18,05,48,17.70
2020,08,18,05,49,17.60
2020,08,18,05,50,17.60
2020,08,18,05,51,17.60
2020,08,18,05,52,17.60
2020,08,18,05,53,17.50
2020,08,18,05,54,17.50
2020,08,18,05,55,17.50
2020,08,18,05,56,17.40
2020,08,18,05,57,17.40
2020,08,18,05,58,17.40
2020,08,18,05,59,17.40
2020,08,18,06,00,17.40
2020,08,18,06,01,17.30
2020,08,18,06,02,17.30
2020,08,18,06,03,17.30
2020,08,18,06,04,17.30
2020,08,18,06,05,17.30
2020,08,18,06,06,17.30
2020,08,18,06,07,17.20
2020,08,18,06,08,17.20
2020,08,18,06,09,17.20
2020,08,18,06,10,17.20
2020,08,18,06,11,17.20
2020,08,18,06,12,17.10
2020,08,18,06,13,17.10
2020,08,18,06,14,17.10
2020,08,18,06,15,17.10
2020,08,18,06,16,17.10
2020,08,18,06,17,17.10
2020,08,18,06,18,17.10
2020,08,18,06,19,17.10
2020,08,18,06,20,17.00
2020,08,18,06,21,17.00
2020,08,18,06,22,17.00
2020,08,18,06,23,17.00
2020,08,18,06,24,17.00
2020,08,18,06,25,17.00
2020,08,18,06,26,16.90
2020,08,18,06,27,16.90
2020,08,18,06,28,16.90
2020,08,18,06,29,16.90
2020,08,18,06,30,16.90
2020,08,18,06,31,16.90
2020,08,18,06,32,16.90
2020,08,18,06,33,16.90
2020,08,18,06,34,16.90
2020,08,18,06,35,16.90
2020,08,18,06,36,16.90
2020,08,18,06,37,16.90
2020,08,18,06,38,16.90
2020,08,18,06,39,17.00
2020,08,18,06,40,16.90
2020,08,18,06,41,16.90
2020,08,18,06,42,16.90
2020,08,18,06,43,16.90
2020,08,18,06,44,16.90
2020,08,18,06,45,16.90
2020,08,18,06,46,16.90
2020,08,18,06,47,16.90
2020,08,18,06,48,16.90
2020,08,18,06,49,16.90
2020,08,18,06,50,16.90
2020,08,18,06,51,16.90
2020,08,18,06,52,16.90
2020,08,18,06,53,16.90
2020,08,18,06,54,16.90
2020,08,18,06,55,17.00
2020,08,18,06,56,17.00
2020,08,18,06,57,17.00
2020,08,18,06,58,17.10
2020,08,18,06,59,17.10
2020,08,18,07,00,17.10
2020,08,18,07,01,17.10
2020,08,18,07,02,17.10
2020,08,18,07,03,17.20
2020,08,18,07,04,17.20
2020,08,18,07,05,17.20
2020,08,18,07,06,17.30
2020,08,18,07,07,17.30
2020,08,18,07,08,17.40
2020,08,18,07,09,17.40
2020,08,18,07,10,17.50
2020,08,18,07,11,17.60
2020,08,18,07,12,17.60
2020,08,18,07,13,17.70
2020,08,18,07,14,17.80
2020,08,18,07,15,17.80
2020,08,18,07,16,17.80
2020,08,18,07,17,17.90
2020,08,18,07,18,18.00
2020,08,18,07,19,18.10
2020,08,18,07,20,18.10
2020,08,18,07,21,18.20
2020,08,18,07,22,18.20
2020,08,18,07,23,18.30
2020,08,18,07,24,18.40
2020,08,18,07,25,18.50
2020,08,18,07,26,18.50
2020,08,18,07,27,18.60
2020,08,18,07,28,18.70
2020,08,18,07,29,18.80
2020,08,18,07,30,18.80
2020,08,18,07,31,18.90
2020,08,18,07,32,18.90
2020,08,18,07,33,19.00
2020,08,18,07,34,19.00
2020,08,18,07,35,19.10
2020,08,18,07,36,19.10
2020,08,18,07,37,19.20
2020,08,18,07,38,19.20
2020,08,18,07,39,19.20
2020,08,18,07,40,19.20
2020,08,18,07,41,19.20
2020,08,18,07,42,19.20
2020,08,18,07,43,19.20
2020,08,18,07,44,19.20
2020,08,18,07,45,19.30
2020,08,18,07,46,19.30
2020,08,18,07,47,19.30
2020,08,18,07,48,19.30
2020,08,18,07,49,19.30
2020,08,18,07,50,19.30
2020,08,18,07,51,19.30
2020,08,18,07,52,19.30
2020,08,18,07,53,19.30
2020,08,18,07,54,19.30
2020,08,18,07,55,19.30
2020,08,18,07,56,19.30
2020,08,18,07,57,19.20
2020,08,18,07,58,19.20
2020,08,18,07,59,19.20
2020,08,18,08,00,19.20
2020,08,18,08,01,19.20
2020,08,18,08,02,19.10
2020,08,18,08,03,19.10
2020,08,18,08,04,19.10
2020,08,18,08,05,19.10
2020,08,18,08,06,19.00
2020,08,18,08,07,19.00
2020,08,18,08,08,19.00
2020,08,18,08,09,18.90
2020,08,18,08,10,18.90
2020,08,18,08,11,18.90
2020,08,18,08,12,18.90
2020,08,18,08,13,18.90
2020,08,18,08,14,18.90
2020,08,18,08,15,18.80
2020,08,18,08,16,18.80
2020,08,18,08,17,18.80
2020,08,18,08,18,18.80
2020,08,18,08,19,18.80
2020,08,18,08,20,18.80
2020,08,18,08,21,18.80
2020,08,18,08,22,18.80
2020,08,18,08,23,18.90
2020,08,18,08,24,18.90
2020,08,18,08,25,18.90
2020,08,18,08,26,19.00
2020,08,18,08,27,19.00
2020,08,18,08,28,19.00
2020,08,18,08,29,19.10
2020,08,18,08,30,19.10
2020,08,18,08,31,19.20
2020,08,18,08,32,19.20
2020,08,18,08,33,19.20
2020,08,18,08,34,19.30
2020,08,18,08,35,19.30
2020,08,18,08,36,19.30
2020,08,18,08,37,19.40
2020,08,18,08,38,19.40
2020,08,18,08,39,19.50
2020,08,18,08,40,19.60
2020,08,18,08,41,19.60
2020,08,18,08,42,19.70
2020,08,18,08,43,19.70
2020,08,18,08,44,19.80
2020,08,18,08,45,19.80
2020,08,18,08,46,19.90
2020,08,18,08,47,20.00
2020,08,18,08,48,20.00
2020,08,18,08,49,20.10
2020,08,18,08,50,20.10
2020,08,18,08,51,20.20
2020,08,18,08,52,20.20
2020,08,18,08,53,20.30
2020,08,18,08,54,20.30
2020,08,18,08,55,20.40
2020,08,18,08,56,20.40
2020,08,18,08,57,20.50
2020,08,18,08,58,20.50
2020,08,18,08,59,20.60
2020,08,18,09,00,20.60
2020,08,18,09,01,20.60
2020,08,18,09,02,20.70
2020,08,18,09,03,20.70
2020,08,18,09,04,20.70
2020,08,18,09,05,20.70
2020,08,18,09,06,20.70
2020,08,18,09,07,20.70
2020,08,18,09,08,20.80
2020,08,18,09,09,20.80
2020,08,18,09,10,20.80
2020,08,18,09,11,20.80
2020,08,18,09,12,20.80
2020,08,18,09,13,20.80
2020,08,18,09,14,20.80
2020,08,18,09,15,20.80
2020,08,18,09,16,20.80
2020,08,18,09,17,20.90
2020,08,18,09,18,20.90
2020,08,18,09,19,20.90
2020,08,18,09,20,20.90
2020,08,18,09,21,20.90
2020,08,18,09,22,20.90
2020,08,18,09,23,20.90
2020,08,18,09,24,20.90
2020,08,18,09,25,20.90
2020,08,18,09,26,21.00
2020,08,18,09,27,21.00
2020,08,18,09,28,21.10
2020,08,18,09,29,21.10
2020,08,18,09,30,21.10
2020,08,18,09,31,21.10
2020,08,18,09,32,21.10
2020,08,18,09,33,21.20
2020,08,18,09,34,21.20
2020,08,18,09,35,21.20
2020,08,18,09,36,21.20
2020,08,18,09,37,21.30
2020,08,18,09,38,21.30
2020,08,18,09,39,21.30
2020,08,18,09,40,21.30
2020,08,18,09,41,21.40
2020,08,18,09,42,21.40
2020,08,18,09,43,21.40
2020,08,18,09,44,21.40
2020,08,18,09,45,21.50
2020,08,18,09,46,21.50
2020,08,18,09,47,21.60
2020,08,18,09,48,21.60
2020,08,18,09,49,21.60
2020,08,18,09,50,21.60
2020,08,18,09,51,21.60
2020,08,18,09,52,21.60
2020,08,18,09,53,21.60
2020,08,18,09,54,21.60
2020,08,18,09,55,21.70
2020,08,18,09,56,21.70
2020,08,18,09,57,21.70
2020,08,18,09,58,21.70
2020,08,18,09,59,21.70
2020,08,18,10,00,21.70
2020,08,18,10,01,21.60
2020,08,18,10,02,21.60
2020,08,18,10,03,21.60
2020,08,18,10,04,21.60
2020,08,18,10,05,21.60
2020,08,18,10,06,21.60
2020,08,18,10,07,21.60
2020,08,18,10,08,21.70
2020,08,18,10,09,21.70
2020,08,18,10,10,21.70
2020,08,18,10,11,21.70
2020,08,18,10,12,21.80
2020,08,18,10,13,21.80
2020,08,18,10,14,21.80
2020,08,18,10,15,21.80
2020,08,18,10,16,21.90
2020,08,18,10,17,21.90
2020,08,18,10,18,22.00
2020,08,18,10,19,22.00
2020,08,18,10,20,22.00
2020,08,18,10,21,22.00
2020,08,18,10,22,21.90
2020,08,18,10,23,21.90
2020,08,18,10,24,21.90
2020,08,18,10,25,22.00
2020,08,18,10,26,22.00
2020,08,18,10,27,22.10
2020,08,18,10,28,22.10
2020,08,18,10,29,22.20
2020,08,18,10,30,22.20
2020,08,18,10,31,22.20
2020,08,18,10,32,22.20
2020,08,18,10,33,22.20
2020,08,18,10,34,22.20
2020,08,18,10,35,22.30
2020,08,18,10,36,22.30
2020,08,18,10,37,22.30
2020,08,18,10,38,22.40
2020,08,18,10,39,22.40
2020,08,18,10,40,22.50
2020,08,18,10,41,22.50
2020,08,18,10,42,22.50
2020,08,18,10,43,22.60
2020,08,18,10,44,22.60
2020,08,18,10,45,22.60
2020,08,18,10,46,22.70
2020,08,18,10,47,22.70
2020,08,18,10,48,22.70
2020,08,18,10,49,22.70
2020,08,18,10,50,22.80
2020,08,18,10,51,22.80
2020,08,18,10,52,22.80
2020,08,18,10,53,22.80
2020,08,18,10,54,22.80
2020,08,18,10,55,22.90
2020,08,18,10,56,22.90
2020,08,18,10,57,22.90
2020,08,18,10,58,22.90
2020,08,18,10,59,22.90
2020,08,18,11,00,22.90
2020,08,18,11,01,22.90
2020,08,18,11,02,22.90
2020,08,18,11,03,23.00
2020,08,18,11,04,23.00
2020,08,18,11,05,23.10
2020,08,18,11,06,23.20
2020,08,18,11,07,23.20
2020,08,18,11,08,23.20
2020,08,18,11,09,23.10
2020,08,18,11,10,23.10
2020,08,18,11,11,23.10
2020,08,18,11,12,23.20
2020,08,18,11,13,23.20
2020,08,18,11,14,23.30
2020,08,18,11,15,23.30
2020,08,18,11,16,23.30
2020,08,18,11,17,23.30
2020,08,18,11,18,23.30
2020,08,18,11,19,23.40
2020,08,18,11,20,23.40
2020,08,18,11,21,23.40
2020,08,18,11,22,23.40
2020,08,18,11,23,23.50
2020,08,18,11,24,23.50
2020,08,18,11,25,23.60
2020,08,18,11,26,23.60
2020,08,18,11,27,23.60
2020,08,18,11,28,23.60
2020,08,18,11,29,23.60
2020,08,18,11,30,23.60
2020,08,18,11,31,23.60
2020,08,18,11,32,23.60
2020,08,18,11,33,23.60
2020,08,18,11,34,23.60
2020,08,18,11,35,23.60
2020,08,18,11,36,23.60
2020,08,18,11,37,23.60
2020,08,18,11,38,23.60
2020,08,18,11,39,23.70
2020,08,18,11,40,23.70
2020,08,18,11,41,23.70
2020,08,18,11,42,23.70
2020,08,18,11,43,23.70
2020,08,18,11,44,23.70
2020,08,18,11,45,23.70
2020,08,18,11,46,23.70
2020,08,18,11,47,23.80
2020,08,18,11,48,23.80
2020,08,18,11,49,23.90
2020,08,18,11,50,23.90
2020,08,18,11,51,24.00
2020,08,18,11,52,24.00
2020,08,18,11,53,24.00
2020,08,18,11,54,24.00
2020,08,18,11,55,24.10
2020,08,18,11,56,24.00
2020,08,18,11,57,24.00
2020,08,18,11,58,24.00
2020,08,18,11,59,24.00
2020,08,18,12,00,24.10
2020,08,18,12,01,24.20
2020,08,18,12,02,24.20
2020,08,18,12,03,24.20
2020,08,18,12,04,24.30
2020,08,18,12,05,24.30
2020,08,18,12,06,24.30
2020,08,18,12,07,24.30
2020,08,18,12,08,24.40
2020,08,18,12,09,24.40
2020,08,18,12,10,24.40
2020,08,18,12,11,24.40
2020,08,18,12,12,24.40
2020,08,18,12,13,24.40
2020,08,18,12,14,24.40
2020,08,18,12,15,24.50
2020,08,18,12,16,24.50
2020,08,18,12,17,24.60
2020,08,18,12,18,24.70
2020,08,18,12,19,24.80
2020,08,18,12,20,24.90
2020,08,18,12,21,25.00
2020,08,18,12,22,25.10
2020,08,18,12,23,25.10
2020,08,18,12,24,25.10
2020,08,18,12,25,25.10
2020,08,18,12,26,25.00
2020,08,18,12,27,25.10
2020,08,18,12,28,25.00
2020,08,18,12,29,25.00
2020,08,18,12,30,24.90
2020,08,18,12,31,24.90
2020,08,18,12,32,24.90
2020,08,18,12,33,24.90
2020,08,18,12,34,24.80
2020,08,18,12,35,24.80
2020,08,18,12,36,24.80
2020,08,18,12,37,24.80
2020,08,18,12,38,24.80
2020,08,18,12,39,24.80
2020,08,18,12,40,24.80
2020,08,18,12,41,24.80
2020,08,18,12,42,24.90
2020,08,18,12,43,24.90
2020,08,18,12,44,25.00
2020,08,18,12,45,25.00
2020,08,18,12,46,25.00
2020,08,18,12,47,25.10
2020,08,18,12,48,25.10
2020,08,18,12,49,25.10
2020,08,18,12,50,25.10
2020,08,18,12,51,25.10
2020,08,18,12,52,25.10
2020,08,18,12,53,25.10
2020,08,18,12,54,25.10
2020,08,18,12,55,25.10
2020,08,18,12,56,25.10
2020,08,18,12,57,25.10
2020,08,18,12,58,25.10
2020,08,18,12,59,25.10
2020,08,18,13,00,25.00
2020,08,18,13,01,25.00
2020,08,18,13,02,25.00
2020,08,18,13,03,24.90
2020,08,18,13,04,24.90
2020,08,18,13,05,24.90
2020,08,18,13,06,25.00
2020,08,18,13,07,25.00
2020,08,18,13,08,25.00
2020,08,18,13,09,25.00
2020,08,18,13,10,25.10
2020,08,18,13,11,25.10
2020,08,18,13,12,25.20
2020,08,18,13,13,25.20
2020,08,18,13,14,25.20
2020,08,18,13,15,25.20
2020,08,18,13,16,25.20
2020,08,18,13,17,25.20
2020,08,18,13,18,25.20
2020,08,18,13,19,25.20
2020,08,18,13,20,25.20
2020,08,18,13,21,25.20
2020,08,18,13,22,25.20
2020,08,18,13,23,25.20
2020,08,18,13,24,25.20
2020,08,18,13,25,25.20
2020,08,18,13,26,25.10
2020,08,18,13,27,25.20
2020,08,18,13,28,25.20
2020,08,18,13,29,25.20
2020,08,18,13,30,25.20
2020,08,18,13,31,25.20
2020,08,18,13,32,25.20
2020,08,18,13,33,25.20
2020,08,18,13,34,25.20
2020,08,18,13,35,25.20
2020,08,18,13,36,25.20
2020,08,18,13,37,25.20
2020,08,18,13,38,25.10
2020,08,18,13,39,25.10
2020,08,18,13,40,25.10
2020,08,18,13,41,25.10
2020,08,18,13,42,25.10
2020,08,18,13,43,25.10
2020,08,18,13,44,25.10
2020,08,18,13,45,25.10
2020,08,18,13,46,25.10
2020,08,18,13,47,25.20
2020,08,18,13,48,25.20
2020,08,18,13,49,25.20
2020,08,18,13,50,25.30
2020,08,18,13,51,25.30
2020,08,18,13,52,25.40
2020,08,18,13,53,25.40
2020,08,18,13,54,25.50
2020,08,18,13,55,25.60
2020,08,18,13,56,25.70
2020,08,18,13,57,25.70
2020,08,18,13,58,25.70
2020,08,18,13,59,25.70
2020,08,18,14,00,25.70
2020,08,18,14,01,25.60
2020,08,18,14,02,25.60
2020,08,18,14,03,25.50
2020,08,18,14,04,25.40
2020,08,18,14,05,25.40
2020,08,18,14,06,25.40
2020,08,18,14,07,25.40
2020,08,18,14,08,25.40
2020,08,18,14,09,25.40
2020,08,18,14,10,25.30
2020,08,18,14,11,25.10
2020,08,18,14,12,25.10
2020,08,18,14,13,25.10
2020,08,18,14,14,25.10
2020,08,18,14,15,25.10
2020,08,18,14,16,25.10
2020,08,18,14,17,25.10
2020,08,18,14,18,25.10
2020,08,18,14,19,25.10
2020,08,18,14,20,25.10
2020,08,18,14,21,25.10
2020,08,18,14,22,25.10
2020,08,18,14,23,25.20
2020,08,18,14,24,25.20
2020,08,18,14,25,25.30
2020,08,18,14,26,25.30
2020,08,18,14,27,25.30
2020,08,18,14,28,25.30
2020,08,18,14,29,25.30
2020,08,18,14,30,25.30
2020,08,18,14,31,25.30
2020,08,18,14,32,25.30
2020,08,18,14,33,25.30
2020,08,18,14,34,25.30
2020,08,18,14,35,25.30
2020,08,18,14,36,25.30
2020,08,18,14,37,25.40
2020,08,18,14,38,25.40
2020,08,18,14,39,25.40
2020,08,18,14,40,25.50
2020,08,18,14,41,25.60
2020,08,18,14,42,25.60
2020,08,18,14,43,25.60
2020,08,18,14,44,25.60
2020,08,18,14,45,25.60
2020,08,18,14,46,25.70
2020,08,18,14,47,25.70
2020,08,18,14,48,25.70
2020,08,18,14,49,25.70
2020,08,18,14,50,25.80
2020,08,18,14,51,25.80
2020,08,18,14,52,25.90
2020,08,18,14,53,25.90
2020,08,18,14,54,26.00
2020,08,18,14,55,25.90
2020,08,18,14,56,25.90
2020,08,18,14,57,25.80
2020,08,18,14,58,25.80
2020,08,18,14,59,25.80
2020,08,18,15,00,25.70
2020,08,18,15,01,25.70
2020,08,18,15,02,25.70
2020,08,18,15,03,25.70
2020,08,18,15,04,25.60
2020,08,18,15,05,25.60
2020,08,18,15,06,25.60
2020,08,18,15,07,25.60
2020,08,18,15,08,25.70
2020,08,18,15,09,25.70
2020,08,18,15,10,25.70
2020,08,18,15,11,25.70
2020,08,18,15,12,25.80
2020,08,18,15,13,25.80
2020,08,18,15,14,25.80
2020,08,18,15,15,25.70
2020,08,18,15,16,25.70
2020,08,18,15,17,25.70
2020,08,18,15,18,25.70
2020,08,18,15,19,25.70
2020,08,18,15,20,25.70
2020,08,18,15,21,25.60
2020,08,18,15,22,25.60
2020,08,18,15,23,25.60
2020,08,18,15,24,25.60
2020,08,18,15,25,25.60
2020,08,18,15,26,25.60
2020,08,18,15,27,25.60
2020,08,18,15,28,25.50
2020,08,18,15,29,25.50
2020,08,18,15,30,25.50
2020,08,18,15,31,25.40
2020,08,18,15,32,25.40
2020,08,18,15,33,25.40
2020,08,18,15,34,25.40
2020,08,18,15,35,25.40
2020,08,18,15,36,25.40
2020,08,18,15,37,25.40
2020,08,18,15,38,25.40
2020,08,18,15,39,25.40
2020,08,18,15,40,25.40
2020,08,18,15,41,25.30
2020,08,18,15,42,25.30
2020,08,18,15,43,25.30
2020,08,18,15,44,25.40
2020,08,18,15,45,25.40
2020,08,18,15,46,25.40
2020,08,18,15,47,25.50
2020,08,18,15,48,25.50
2020,08,18,15,49,25.60
2020,08,18,15,50,25.60
2020,08,18,15,51,25.70
2020,08,18,15,52,25.70
2020,08,18,15,53,25.70
2020,08,18,15,54,25.70
2020,08,18,15,55,25.70
2020,08,18,15,56,25.70
2020,08,18,15,57,25.70
2020,08,18,15,58,25.70
2020,08,18,15,59,25.70
2020,08,18,16,00,25.70
2020,08,18,16,01,25.70
2020,08,18,16,02,25.80
2020,08,18,16,03,25.80
2020,08,18,16,04,25.70
2020,08,18,16,05,25.70
2020,08,18,16,06,25.70
2020,08,18,16,07,25.70
2020,08,18,16,08,25.70
2020,08,18,16,09,25.60
2020,08,18,16,10,25.60
2020,08,18,16,11,25.60
2020,08,18,16,12,25.60
2020,08,18,16,13,25.60
2020,08,18,16,14,25.60
2020,08,18,16,15,25.60
2020,08,18,16,16,25.50
2020,08,18,16,17,25.50
2020,08,18,16,18,25.50
2020,08,18,16,19,25.40
2020,08,18,16,20,25.40
2020,08,18,16,21,25.40
2020,08,18,16,22,25.40
2020,08,18,16,23,25.40
2020,08,18,16,24,25.40
2020,08,18,16,25,25.40
2020,08,18,16,26,25.40
2020,08,18,16,27,25.40
2020,08,18,16,28,25.30
2020,08,18,16,29,25.30
2020,08,18,16,30,25.30
2020,08,18,16,31,25.30
2020,08,18,16,32,25.30
2020,08,18,16,33,25.30
2020,08,18,16,34,25.30
2020,08,18,16,35,25.30
2020,08,18,16,36,25.30
2020,08,18,16,37,25.30
2020,08,18,16,38,25.30
2020,08,18,16,39,25.20
2020,08,18,16,40,25.20
2020,08,18,16,41,25.20
2020,08,18,16,42,25.20
2020,08,18,16,43,25.20
2020,08,18,16,44,25.20
2020,08,18,16,45,25.20
2020,08,18,16,46,25.20
2020,08,18,16,47,25.20
2020,08,18,16,48,25.10
2020,08,18,16,49,25.00
2020,08,18,16,50,25.00
2020,08,18,16,51,24.90
2020,08,18,16,52,24.90
2020,08,18,16,53,24.80
2020,08,18,16,54,24.80
2020,08,18,16,55,24.70
2020,08,18,16,56,24.60
2020,08,18,16,57,24.60
2020,08,18,16,58,24.50
2020,08,18,16,59,24.40
2020,08,18,17,00,24.30
2020,08,18,17,01,24.30
2020,08,18,17,02,24.30
2020,08,18,17,03,24.30
2020,08,18,17,04,24.30
2020,08,18,17,05,24.30
2020,08,18,17,06,24.30
2020,08,18,17,07,24.30
2020,08,18,17,08,24.30
2020,08,18,17,09,24.20
2020,08,18,17,10,24.30
2020,08,18,17,11,24.30
2020,08,18,17,12,24.30
2020,08,18,17,13,24.30
2020,08,18,17,14,24.30
2020,08,18,17,15,24.40
2020,08,18,17,16,24.40
2020,08,18,17,17,24.40
2020,08,18,17,18,24.40
2020,08,18,17,19,24.40